Theta_e
322 322 322 322 322 323 324 324 325 325 325 326 326 327 327 328 327 326 321 333 352 362 360 352 342 339 342 334 335 341 319 311 316 318 320 327 325 329 332 327 330 331 329 333 339
322 322 321 322 322 323 323 324 324 324 325 325 326 327 327 328 323 319 339 362 363 362 349 344 341 339 332 332 332 327 316 318 323 323 321 326 326 326 325 325 325 327 335 338 340
320 320 321 321 322 322 323 323 324 324 324 324 325 327 328 327 318 323 360 365 363 361 349 348 341 335 327 330 329 328 316 324 326 327 329 327 327 329 324 320 324 327 333 336 338
320 319 319 320 321 322 322 323 323 322 323 323 326 327 328 323 315 331 367 367 365 359 347 344 338 335 334 328 332 321 324 327 330 330 329 326 329 324 325 324 329 334 337 337 336
318 318 318 319 321 321 321 322 321 321 322 323 326 328 319 311 317 354 368 368 360 350 341 338 335 335 330 332 327 322 325 327 328 331 329 328 325 324 326 329 330 334 337 335 335
317 317 318 319 320 320 321 320 320 320 322 323 326 329 315 310 331 355 356 354 350 344 337 336 333 336 329 324 320 325 325 325 326 325 330 326 325 326 327 329 328 328 332 334 334
317 317 318 319 319 320 319 319 319 320 321 324 327 328 314 313 336 343 348 346 345 340 334 337 337 324 319 320 327 326 318 321 322 325 321 327 322 321 327 328 326 326 326 332 334
317 317 318 318 319 318 318 317 318 320 323 325 329 319 306 320 323 335 333 333 342 342 338 336 336 321 316 325 324 320 318 310 320 324 325 322 313 324 327 326 324 326 327 328 329
317 317 317 317 318 317 316 316 318 322 325 326 317 310 308 325 321 324 334 331 329 331 328 331 323 316 316 315 311 316 308 311 315 323 323 320 316 324 326 324 324 325 326 327 328
317 316 317 317 317 316 314 314 317 321 324 326 320 307 312 317 319 322 329 332 326 324 321 317 311 307 305 305 300 306 308 313 310 317 321 317 317 323 325 324 323 324 325 326 327
317 316 316 316 315 314 308 307 309 303 311 301 302 308 313 315 318 320 320 323 323 318 310 311 307 303 307 308 310 307 311 313 316 319 316 314 317 320 323 324 323 323 324 325 326
317 316 315 314 313 312 307 301 309 310 306 311 309 309 311 311 308 315 322 317 315 311 309 307 303 310 311 310 308 305 310 310 317 319 315 314 316 321 323 323 324 323 324 325 326
318 317 316 314 313 306 303 305 310 307 302 306 308 308 309 309 307 308 318 315 311 307 306 304 309 313 310 308 304 299 306 305 307 316 316 313 310 318 323 323 324 325 326 326 326
318 317 315 312 307 304 304 309 308 308 295 300 303 309 308 309 305 315 317 314 308 308 307 305 310 308 307 304 302 302 305 307 311 307 303 312 301 303 319 321 324 324 324 325 330
318 317 313 311 304 302 307 310 309 305 285 301 302 309 305 307 304 307 313 312 307 307 304 304 305 305 302 305 306 303 305 302 305 302 293 297 293 296 316 316 322 325 325 326 332
316 315 313 307 303 309 312 309 306 295 288 300 304 302 301 301 304 306 308 311 309 306 302 304 307 304 304 306 306 305 302 299 295 293 290 293 294 296 309 318 321 325 328 327 331
314 312 311 312 302 308 308 305 295 289 300 299 298 297 297 298 300 302 301 299 300 297 295 300 302 304 305 299 302 301 295 290 291 289 290 292 296 298 304 318 322 324 327 329 331
311 309 309 310 308 308 306 300 289 296 296 302 297 296 297 298 298 300 299 298 299 298 294 294 295 300 304 302 300 298 296 291 288 287 292 296 294 301 316 318 322 325 328 329 329
309 305 305 307 311 307 303 292 293 296 303 301 298 294 293 296 298 298 298 298 301 299 297 291 295 302 305 302 304 296 294 297 290 288 290 293 304 319 319 315 317 318 325 327 328
304 304 305 310 311 304 299 293 296 302 304 301 294 294 292 292 295 295 295 300 302 302 300 296 293 297 303 303 301 299 300 293 290 288 290 295 298 308 314 314 315 316 320 324 328
305 303 306 308 302 300 295 294 300 305 305 299 297 296 297 296 295 293 296 300 303 301 300 295 293 297 299 297 297 297 295 292 292 293 291 293 298 308 319 319 320 324 329 332 334
302 295 309 304 294 289 291 296 300 299 302 300 299 300 298 300 297 295 297 300 305 302 298 298 293 292 297 299 300 298 297 295 292 292 292 295 298 309 321 327 330 329 332 333 333
300 299 311 304 289 290 293 297 299 298 298 299 300 301 301 298 296 300 300 307 305 302 298 299 293 290 294 296 296 296 296 295 293 292 293 294 298 313 320 321 326 328 331 333 332
302 297 303 299 295 293 292 295 296 303 302 302 301 301 299 298 298 299 301 308 305 303 321 307 291 293 293 294 296 295 299 297 296 294 293 296 302 311 318 321 325 326 331 333 331
303 298 302 301 302 305 299 299 300 300 302 300 299 301 300 296 296 298 302 305 306 317 302 300 294 294 295 299 301 301 301 300 298 298 298 299 311 314 317 323 326 327 329 333 331
306 303 305 303 305 304 301 300 303 306 301 301 299 303 300 298 301 299 302 301 302 300 298 295 294 294 294 298 300 299 302 301 300 299 300 306 310 315 318 321 321 324 334 334 335
308 307 305 302 304 303 302 306 308 309 306 307 306 301 301 302 305 306 305 308 306 306 298 295 294 292 291 296 296 293 299 299 300 301 305 305 309 312 311 317 319 322 331 336 339
Wind_Speed
14 13 14 15 15 15 15 15 16 16 15 15 13 11 14 12 8 5 6 7 9 15 15 9 3 4 3 3 3 1 4 2 5 7 7 11 6 10 3 13 5 8 7 10 16
14 15 14 15 16 16 16 16 17 16 16 16 13 13 11 12 1 6 4 18 27 23 11 13 9 6 3 1 2 1 3 6 4 1 5 12 13 12 7 12 3 8 12 17 17
15 15 16 15 16 16 16 16 17 17 16 18 16 13 14 7 2 3 9 18 25 13 8 6 9 6 2 1 3 5 4 2 3 7 6 14 12 5 15 4 13 19 21 20 16
17 17 17 17 16 16 16 16 16 18 17 17 17 16 18 2 1 3 10 20 22 11 14 10 7 5 5 6 6 3 4 2 3 6 6 12 9 8 10 5 12 17 21 21 17
17 17 17 17 17 17 16 16 16 16 17 17 16 15 4 4 7 7 10 15 13 6 8 8 7 7 4 5 6 3 5 1 6 2 6 10 9 9 8 10 9 17 18 19 16
17 18 18 19 18 18 17 16 17 16 16 16 15 14 2 2 2 16 12 9 8 9 6 7 8 10 5 5 6 1 5 6 6 6 6 10 4 5 4 9 9 14 17 16 16
17 18 19 19 19 19 19 18 18 16 15 13 12 4 1 12 5 11 15 9 7 10 7 8 7 3 3 5 3 3 5 4 3 4 2 7 4 5 11 12 11 9 11 15 14
18 18 20 19 19 20 21 20 19 16 12 9 5 1 8 3 4 8 7 6 11 11 9 9 13 8 4 5 5 3 5 3 2 3 2 3 4 5 11 13 9 9 8 11 14
18 18 20 20 19 20 20 24 18 10 5 2 1 0 10 9 4 8 8 7 3 10 9 8 8 4 4 5 4 1 3 3 3 8 4 2 3 8 11 12 12 11 10 9 8
19 20 20 20 19 19 25 15 8 3 2 4 3 2 5 5 4 4 5 4 4 4 7 7 5 4 5 5 5 6 4 4 5 8 4 3 4 14 16 14 15 13 11 9 8
21 21 21 21 20 17 13 4 5 5 1 8 5 4 5 7 2 5 2 2 3 6 3 4 6 7 12 10 6 7 6 8 4 7 6 7 5 16 17 14 13 13 12 11 11
21 22 22 22 21 18 0 3 4 4 9 10 8 9 5 3 5 6 4 4 2 3 4 8 6 13 6 6 8 2 8 4 2 8 6 5 11 13 18 22 18 16 14 14 10
17 18 23 24 23 2 1 5 2 5 3 9 7 7 6 8 8 9 9 4 3 3 2 5 11 11 6 8 5 2 8 6 4 5 4 4 5 7 12 10 12 14 13 12 10
18 18 23 30 2 4 4 3 6 4 5 9 5 10 6 7 5 6 8 7 1 9 4 6 6 5 7 5 4 2 4 4 9 6 5 8 6 6 11 16 13 16 15 9 10
19 16 19 8 4 3 5 8 8 4 3 3 5 0 5 10 3 4 5 5 7 6 5 10 7 8 5 5 4 7 3 2 6 7 5 3 3 7 10 9 16 16 15 10 13
22 19 17 2 1 8 10 10 3 8 8 2 6 7 6 3 3 3 4 4 2 5 2 8 5 4 8 1 1 4 5 7 5 4 2 5 7 4 8 23 13 7 11 14 16
25 18 8 2 5 4 6 5 7 4 6 2 5 3 3 5 3 4 2 0 6 3 4 7 6 5 4 2 4 8 8 5 6 6 7 6 3 8 5 6 11 13 12 14 14
28 21 6 6 3 3 4 7 4 5 6 6 1 4 7 6 4 4 5 4 3 6 3 2 10 2 3 7 7 3 8 7 4 3 4 4 1 5 6 8 9 5 5 8 10
22 2 3 6 9 2 6 3 10 7 4 6 3 5 3 4 5 5 8 8 10 9 9 5 8 6 4 4 9 3 3 5 8 3 3 3 4 5 7 7 5 6 6 9 10
4 5 5 3 11 5 6 7 6 5 6 4 1 2 7 2 6 7 8 7 7 12 6 6 3 4 6 5 3 5 7 3 4 3 1 3 3 7 1 3 2 3 7 7 8
3 5 4 4 1 6 6 8 6 7 5 3 2 4 6 7 9 6 8 7 6 4 6 7 5 9 3 3 9 2 1 6 6 5 7 5 8 8 15 14 14 11 8 8 8
4 4 4 4 5 1 5 8 3 3 5 5 3 8 4 2 6 8 10 10 11 13 11 8 6 5 13 5 3 4 7 6 7 4 1 4 6 2 11 14 14 11 9 4 2
3 5 5 4 3 2 4 3 5 5 5 5 5 6 2 3 3 7 8 9 8 11 13 9 3 2 13 8 4 3 4 5 6 4 5 7 6 2 6 6 8 11 8 6 4
2 5 5 2 2 3 0 5 4 5 7 7 7 3 2 4 5 4 2 5 3 13 10 11 6 10 10 10 5 3 2 5 4 5 6 6 5 4 7 9 7 6 7 7 6
2 4 1 5 4 4 3 3 4 7 5 3 3 9 8 6 3 5 4 5 4 4 6 10 9 7 7 5 5 5 6 6 8 7 8 9 13 15 14 14 13 9 9 8 7
2 3 5 5 6 3 3 1 5 9 9 11 9 13 4 8 10 9 4 3 4 1 5 3 6 6 6 5 5 5 7 6 8 4 3 14 9 6 6 6 7 10 12 14 12
3 2 2 5 6 2 1 3 8 7 9 16 15 4 9 12 11 12 9 4 5 3 3 3 7 5 6 2 2 5 7 5 7 6 12 9 12 10 5 8 10 11 13 15 14
Wind_Direction
353 351 348 344 344 340 339 334 330 330 329 327 329 323 314 315 314 141 223 205 154 137 146 141 106 83 4 55 245 216 71 297 199 171 161 154 141 160 92 137 161 204 143 146 142
352 349 347 343 340 338 336 333 329 329 328 325 327 322 317 319 262 217 257 139 141 147 146 153 164 125 302 307 336 29 113 219 195 96 147 162 161 143 135 157 151 95 105 136 151
349 347 343 343 338 336 334 332 328 326 327 323 324 325 315 315 295 241 141 148 159 163 156 135 116 113 274 107 222 193 219 209 59 100 61 137 151 112 147 206 166 152 149 159 162
349 347 346 342 339 335 332 329 326 323 322 321 323 325 319 253 116 213 160 146 160 165 152 144 160 176 235 218 183 224 284 330 117 130 125 148 153 141 172 193 154 152 156 163 168
348 346 343 340 337 333 329 325 320 318 316 317 322 328 352 7 257 143 139 133 147 163 177 182 176 191 226 236 142 268 150 285 23 346 135 131 146 152 187 153 134 150 163 172 177
348 345 343 338 336 331 327 320 314 311 310 312 320 319 355 313 139 144 140 141 156 174 194 189 203 207 213 221 158 267 143 148 46 3 101 114 113 104 135 149 159 149 176 180 184
348 344 342 337 334 329 322 315 308 305 303 304 310 315 40 233 110 159 153 182 181 181 176 214 209 203 257 124 166 143 90 33 40 30 72 102 29 164 152 164 175 177 164 189 196
347 343 341 336 331 326 317 310 305 299 292 286 287 273 248 234 133 168 192 251 181 198 222 217 204 225 235 108 69 110 86 147 228 104 350 48 224 154 161 167 189 202 203 185 198
346 342 338 335 328 323 314 308 301 292 245 229 274 151 270 312 199 225 162 228 181 200 218 240 156 192 34 88 51 12 207 218 163 192 128 89 170 174 175 177 187 209 215 219 225
343 338 335 331 326 323 319 295 291 302 172 195 257 357 279 258 289 276 186 220 259 340 357 34 70 94 27 71 220 209 206 219 197 193 151 202 224 169 184 186 194 205 217 223 229
343 339 336 330 326 331 343 19 25 3 46 197 207 250 295 297 312 249 234 149 9 57 355 359 37 286 272 197 198 207 196 181 199 187 124 213 213 185 187 200 203 207 217 225 228
342 339 335 329 324 322 280 61 125 156 302 242 236 275 273 75 310 280 104 146 112 258 25 5 290 273 277 324 234 271 162 199 124 152 103 206 231 196 189 203 205 204 213 224 227
327 328 336 326 320 90 5 234 356 335 176 288 196 205 209 145 213 251 142 172 162 256 152 166 253 310 293 302 206 12 164 195 138 105 36 88 331 198 222 210 216 221 219 216 217
327 327 337 326 352 322 274 271 297 209 53 270 219 262 166 170 260 223 193 143 148 221 218 232 278 268 314 246 128 67 193 140 135 101 192 151 245 246 213 214 213 217 212 193 126
324 327 336 337 291 304 292 319 306 63 333 217 201 182 154 153 185 246 188 72 200 214 97 250 303 338 329 247 143 212 171 98 139 138 108 203 70 263 162 226 221 215 206 176 166
323 325 331 124 250 248 307 313 70 44 256 273 165 174 123 159 228 360 143 83 174 166 172 248 284 235 226 169 212 91 65 49 57 122 77 226 156 271 174 215 221 212 191 181 182
321 316 301 276 239 317 309 30 51 156 321 243 215 161 155 165 198 152 119 124 173 118 319 317 248 266 220 304 17 71 55 350 3 12 224 318 97 234 278 203 201 197 186 181 186
322 315 213 210 271 337 40 52 177 238 249 302 124 91 172 161 208 140 151 230 251 103 108 145 320 207 172 190 178 105 136 151 225 215 264 330 218 338 300 154 173 164 122 137 187
318 320 250 248 185 75 76 119 207 212 269 336 338 106 236 218 165 142 187 198 203 168 167 155 274 300 203 182 134 194 171 190 104 4 72 281 307 65 32 55 91 113 145 195 214
331 331 269 143 153 88 85 228 237 227 331 352 300 156 190 201 164 161 177 207 219 185 155 202 295 257 292 126 40 140 164 69 15 144 147 319 270 177 188 157 114 175 206 234 263
17 353 274 142 95 63 191 221 264 263 348 352 306 305 220 194 179 189 208 262 213 160 135 135 121 273 10 180 180 51 351 54 117 127 152 151 260 197 171 184 179 204 209 207 229
359 338 323 83 69 40 161 188 245 284 38 300 252 221 237 217 204 199 205 221 182 153 160 201 154 234 243 244 179 186 176 138 121 224 158 145 268 282 169 176 167 177 191 180 321
341 266 312 80 164 255 262 256 233 266 259 251 261 207 266 296 278 191 198 239 205 157 170 175 225 307 323 355 349 200 182 119 116 98 187 131 249 48 133 176 170 151 165 166 167
19 338 313 36 128 140 195 242 241 238 238 210 245 231 317 260 231 270 260 277 192 193 168 121 136 166 205 208 175 178 140 141 120 116 172 207 164 175 174 177 166 155 161 177 165
75 270 190 311 321 341 175 281 240 273 257 242 278 208 202 233 225 224 255 289 320 95 131 136 182 173 225 183 182 189 213 188 188 196 156 200 176 190 188 180 185 164 160 162 168
9 5 344 282 285 244 173 236 275 273 183 267 225 247 196 219 204 208 185 225 247 239 125 316 194 154 214 169 177 246 286 208 198 173 37 156 190 203 180 123 168 164 165 171 177
314 348 110 277 303 310 207 354 286 337 249 222 229 284 294 230 214 216 200 238 220 195 149 118 135 113 229 184 90 328 237 225 199 183 148 157 212 153 161 182 179 173 178 169 175